IGO301 VABB-OMDB

Flight info

Callsign IGO301
Flight time N/A
Altitude 34000
Route VABB/27 N0446F380 RAXE2A SAKUN V2 SUGID N571 VUSET A454 PASOV B540 KUPMA/N0371F240 B540 MIVEK P574 IMPED IMPE3C OMDB/30L
Aircraft A321/M-SDFGHIRWY/C

Departure

Time 2026-05-05 05:38
Airport Chhatrapati Shivaji Maharaj International Airport (VABB)

Arrival

Time N/A
Airport Dubai International Airport (OMDB)
Time Latitude Longitude Altitude Speed Heading
2026-05-05 05:12 19.09229 72.86876 36 ft 0 kts 224°
2026-05-05 05:22 19.09233 72.86880 36 ft 3 kts 224°
2026-05-05 05:23 19.09246 72.86893 36 ft 3 kts 224°
2026-05-05 05:23 19.09260 72.86907 35 ft 3 kts 224°
2026-05-05 05:23 19.09273 72.86921 34 ft 3 kts 224°
2026-05-05 05:23 19.09274 72.86922 34 ft 0 kts 224°
2026-05-05 05:25 19.09285 72.86931 35 ft 3 kts 186°
2026-05-05 05:25 19.09303 72.86926 32 ft 3 kts 150°
2026-05-05 05:26 19.09319 72.86916 36 ft 3 kts 150°
2026-05-05 05:26 19.09336 72.86906 35 ft 3 kts 132°
2026-05-05 05:26 19.09337 72.86905 35 ft 0 kts 123°
2026-05-05 05:32 19.09303 72.86960 36 ft 11 kts 126°
2026-05-05 05:32 19.09247 72.87004 36 ft 10 kts 132°
2026-05-05 05:32 19.09233 72.87077 36 ft 11 kts 84°
2026-05-05 05:32 19.09234 72.87183 37 ft 20 kts 88°
2026-05-05 05:33 19.09187 72.87275 36 ft 0 kts 154°
2026-05-05 05:33 19.09169 72.87273 37 ft 8 kts 195°
2026-05-05 05:33 19.09132 72.87264 37 ft 2 kts 186°
2026-05-05 05:34 19.09129 72.87264 37 ft 5 kts 184°
2026-05-05 05:34 19.09054 72.87301 38 ft 14 kts 108°
2026-05-05 05:34 19.09053 72.87403 38 ft 17 kts 90°
2026-05-05 05:34 19.09053 72.87575 39 ft 28 kts 88°
2026-05-05 05:35 19.09057 72.87748 40 ft 15 kts 89°
2026-05-05 05:35 19.09017 72.87807 40 ft 6 kts 171°
2026-05-05 05:35 19.09013 72.87807 40 ft 0 kts 180°
2026-05-05 05:36 19.08992 72.87807 40 ft 11 kts 180°
2026-05-05 05:36 19.08900 72.87798 40 ft 9 kts 211°
2026-05-05 05:36 19.08885 72.87762 40 ft 6 kts 261°
2026-05-05 05:37 19.08884 72.87731 39 ft 0 kts 270°
2026-05-05 05:37 19.08884 72.87716 39 ft 17 kts 271°
2026-05-05 05:37 19.08877 72.87275 39 ft 105 kts 269°
2026-05-05 05:38 19.08862 72.86173 36 ft 187 kts 269°
2026-05-05 05:38 19.08832 72.84712 604 ft 210 kts 268°
2026-05-05 05:38 19.08779 72.83040 1080 ft 246 kts 268°
2026-05-05 05:38 19.08755 72.81083 1543 ft 286 kts 269°
2026-05-05 05:39 19.08762 72.78888 2146 ft 305 kts 268°
2026-05-05 05:39 19.08723 72.76712 2723 ft 299 kts 268°
2026-05-05 05:39 19.08763 72.74457 3293 ft 315 kts 273°
2026-05-05 05:39 19.08996 72.72102 3842 ft 328 kts 276°
2026-05-05 05:40 19.09270 72.69668 4410 ft 336 kts 276°
2026-05-05 05:40 19.09549 72.67196 4968 ft 342 kts 276°
2026-05-05 05:40 19.09826 72.64692 5510 ft 346 kts 276°
2026-05-05 05:40 19.10102 72.62157 6067 ft 348 kts 276°
2026-05-05 05:41 19.10378 72.59616 6621 ft 351 kts 276°
2026-05-05 05:41 19.10656 72.57036 7148 ft 354 kts 276°
2026-05-05 05:41 19.10931 72.54473 7678 ft 357 kts 276°
2026-05-05 05:41 19.11212 72.51853 8241 ft 360 kts 276°
2026-05-05 05:42 19.11484 72.49317 8781 ft 363 kts 276°
2026-05-05 05:42 19.11770 72.46641 9356 ft 369 kts 276°
2026-05-05 05:42 19.12059 72.43930 9923 ft 374 kts 276°
2026-05-05 05:42 19.12353 72.41173 10346 ft 379 kts 276°
2026-05-05 05:43 19.12648 72.38400 10677 ft 381 kts 276°
2026-05-05 05:43 19.12945 72.35599 11007 ft 383 kts 276°
2026-05-05 05:43 19.13239 72.32826 11337 ft 386 kts 276°
2026-05-05 05:43 19.13538 72.29999 11672 ft 388 kts 276°
2026-05-05 05:44 19.13839 72.27159 12018 ft 390 kts 276°
2026-05-05 05:44 19.14141 72.24301 12366 ft 391 kts 276°
2026-05-05 05:44 19.14443 72.21432 12712 ft 394 kts 276°
2026-05-05 05:44 19.14747 72.18544 13063 ft 396 kts 275°
2026-05-05 05:45 19.15053 72.15633 13417 ft 399 kts 275°
2026-05-05 05:45 19.15376 72.12711 13767 ft 401 kts 277°
2026-05-05 05:45 19.15968 72.09819 14093 ft 403 kts 287°
2026-05-05 05:45 19.17024 72.07071 14416 ft 405 kts 296°
2026-05-05 05:46 19.18315 72.04424 14739 ft 406 kts 298°
2026-05-05 05:46 19.19637 72.01821 15063 ft 407 kts 298°
2026-05-05 05:46 19.20979 71.99186 15395 ft 407 kts 298°
2026-05-05 05:46 19.22336 71.96510 15738 ft 408 kts 298°
2026-05-05 05:47 19.23671 71.93866 16076 ft 406 kts 298°
2026-05-05 05:47 19.24984 71.91262 16413 ft 407 kts 298°
2026-05-05 05:47 19.26318 71.88613 16758 ft 408 kts 298°
2026-05-05 05:47 19.27653 71.85957 17105 ft 409 kts 298°
2026-05-05 05:48 19.28993 71.83292 17462 ft 411 kts 298°
2026-05-05 05:48 19.30340 71.80608 17821 ft 413 kts 298°
2026-05-05 05:48 19.31692 71.77914 18183 ft 415 kts 298°
2026-05-05 05:48 19.33048 71.75211 18496 ft 416 kts 298°
2026-05-05 05:49 19.34406 71.72502 18807 ft 417 kts 298°
2026-05-05 05:49 19.35767 71.69788 19123 ft 416 kts 298°
2026-05-05 05:49 19.37125 71.67075 19444 ft 416 kts 298°
2026-05-05 05:49 19.38460 71.64407 19763 ft 415 kts 299°
2026-05-05 05:50 19.39811 71.61707 20091 ft 414 kts 299°
2026-05-05 05:50 19.41156 71.59018 20421 ft 413 kts 299°
2026-05-05 05:50 19.42503 71.56323 20758 ft 413 kts 299°
2026-05-05 05:50 19.43847 71.53634 21092 ft 414 kts 299°
2026-05-05 05:51 19.45195 71.50935 21434 ft 414 kts 299°
2026-05-05 05:51 19.46542 71.48237 21780 ft 415 kts 299°
2026-05-05 05:51 19.47890 71.45535 22132 ft 415 kts 299°
2026-05-05 05:51 19.49242 71.42826 22492 ft 416 kts 299°
2026-05-05 05:52 19.50593 71.40117 22858 ft 416 kts 299°
2026-05-05 05:52 19.51949 71.37394 23220 ft 416 kts 300°
2026-05-05 05:52 19.53284 71.34715 23563 ft 416 kts 300°
2026-05-05 05:52 19.54635 71.32000 23861 ft 417 kts 299°
2026-05-05 05:53 19.55989 71.29280 24159 ft 417 kts 299°
2026-05-05 05:53 19.57347 71.26548 24463 ft 419 kts 299°
2026-05-05 05:53 19.58709 71.23810 24773 ft 421 kts 299°
2026-05-05 05:53 19.60062 71.21050 25087 ft 423 kts 297°
2026-05-05 05:54 19.61225 71.18166 25401 ft 427 kts 292°
2026-05-05 05:54 19.62248 71.15200 25722 ft 430 kts 290°
2026-05-05 05:54 19.63205 71.12191 26042 ft 432 kts 289°
2026-05-05 05:54 19.64137 71.09146 26371 ft 434 kts 289°
2026-05-05 05:55 19.65064 71.06088 26700 ft 436 kts 289°
2026-05-05 05:55 19.65999 71.03014 27036 ft 438 kts 289°
2026-05-05 05:55 19.66943 70.99936 27375 ft 440 kts 289°
2026-05-05 05:55 19.67896 70.96848 27718 ft 441 kts 289°
2026-05-05 05:56 19.68857 70.93755 28067 ft 442 kts 289°
2026-05-05 05:56 19.69824 70.90650 28418 ft 443 kts 289°
2026-05-05 05:56 19.70777 70.87590 28764 ft 443 kts 289°
2026-05-05 05:56 19.71745 70.84483 29125 ft 444 kts 289°
2026-05-05 05:57 19.72715 70.81368 29485 ft 444 kts 289°
2026-05-05 05:57 19.73684 70.78250 29855 ft 444 kts 288°
2026-05-05 05:57 19.74651 70.75138 30193 ft 444 kts 288°
2026-05-05 05:57 19.75618 70.72023 30506 ft 444 kts 288°
2026-05-05 05:58 19.76583 70.68911 30826 ft 443 kts 288°
2026-05-05 05:58 19.77547 70.65802 31147 ft 443 kts 288°
2026-05-05 05:58 19.78507 70.62702 31470 ft 442 kts 288°
2026-05-05 05:58 19.79465 70.59604 31802 ft 440 kts 288°
2026-05-05 05:59 19.80421 70.56515 32133 ft 439 kts 288°
2026-05-05 05:59 19.81373 70.53434 32468 ft 438 kts 288°
2026-05-05 05:59 19.82321 70.50363 32809 ft 437 kts 288°
2026-05-05 05:59 19.83256 70.47336 33149 ft 436 kts 288°
2026-05-05 06:00 19.83892 70.45272 33382 ft 435 kts 288°